[[{"header":{"parameterUnit":"m.s-1","parameterCategory":1,"la1":30.2991,"la2":30.254,"lo1":-89.0895,"lo2":-89.0444,"dx":0.0017,"dy":0.0017,"nx":28,"ny":28,"refTime":"2022-12-18T15:00:00:Z","depth":0,"parameterNumber":2,"parameterNumberName":"U-component_of_WINDS"},"data":[0,0,0,0,0,0,0,0,0,0,0,0,0,0,0,0,0,0,0,0,0,0,0,0,0,0,0,0,0,0,0,0,0,0,0,0,0,0,0,0,0,0,0,0,0,0,0,0,0,0,0,0,0,0,0,0,0,0,-2.4067,-2.4068,0,-2.4123,-2.4124,-2.4124,-2.4043,-2.4041,-2.4038,-2.4035,-2.4094,-2.4098,-2.4102,0,0,0,0,0,0,0,0,0,0,0,0,0,-2.3891,-2.3894,-2.4067,-2.4068,-2.4069,-2.4123,-2.4124,-2.4125,-2.4044,-2.404,-2.4037,-2.4034,-2.4092,-2.4097,-2.4102,0,0,0,0,0,0,0,0,0,0,0,0,0,-2.3959,-2.3895,-2.4067,-2.4035,-2.4033,-2.4123,-2.4124,-2.4125,-2.4045,-2.404,-2.4036,-2.4032,-2.4091,-2.4097,-2.4103,-2.4228,0,0,-2.4122,-2.4125,0,0,0,0,0,0,0,0,-2.3955,-2.3966,-2.4039,-2.4037,-2.4035,-2.4072,-2.4083,-2.4159,-2.4046,-2.404,-2.4035,-2.403,-2.409,-2.4096,-2.4116,-2.4231,-2.4233,-2.4123,-2.4127,-2.4129,-2.4131,0,0,0,0,0,0,0,-2.3951,-2.3963,-2.4089,-2.404,-2.4038,-2.4018,-2.4023,-2.4097,-2.4089,-2.404,-2.4035,-2.4042,-2.4088,-2.411,-2.4117,-2.4234,-2.4123,-2.4128,-2.4132,-2.4135,-2.4451,-2.4456,0,0,0,0,0,0,-2.395,-2.3959,-2.4088,-2.4091,-2.3984,-2.4024,-2.403,-2.4064,-2.4087,-2.4087,-2.4046,-2.4038,-2.4101,-2.4109,-2.4119,-2.4265,-2.4129,-2.4135,-2.4139,-2.4447,-2.4452,-2.4457,0,0,0,0,0,0,-2.3946,-2.3962,-2.4085,-2.4024,-2.4038,-2.4032,-2.4071,-2.4068,-2.409,-2.4092,-2.409,-2.407,-2.4098,-2.411,-2.4201,-2.4266,-2.4138,-2.4144,-2.4441,-2.4448,-2.4455,-2.456,0,0,0,0,0,0,-2.3942,-2.3961,-2.4009,-2.4025,-2.4041,-2.4167,-2.4075,-2.4072,-2.4101,-2.4091,-2.4114,-2.4113,-2.4096,-2.4192,-2.4207,-2.4272,-2.4149,-2.4435,-2.4444,-2.4452,-2.455,-2.4569,-2.4586,0,0,0,0,0,-2.3935,-2.4037,-2.4012,-2.4028,-2.4101,-2.4171,-2.418,-2.4158,-2.4106,-2.4154,-2.4155,-2.4113,-2.4256,-2.4202,-2.4218,-2.4287,-2.4431,-2.4442,-2.4452,-2.4543,-2.4566,-2.4585,0,0,0,0,0,0,-2.403,-2.4039,-2.4011,-2.4121,-2.4146,-2.4157,-2.4217,-2.4183,-2.4224,-2.4214,-2.4184,-2.419,-2.4287,-2.4295,-2.4235,-2.4407,-2.4335,-2.4349,-2.4398,-2.442,-2.4437,-2.4434,-2.4154,0,0,0,0,0,-2.4063,-2.4119,-2.4124,-2.4221,-2.4234,-2.4224,-2.4254,-2.4234,-2.4258,-2.4269,-2.4276,-2.4302,-2.4352,-2.4387,-2.4433,-2.4551,-2.4554,-2.4606,-2.4623,-2.4638,-2.465,-2.4711,-2.4734,-2.4491,-2.4491,-2.4491,0,0,-2.4134,-2.4145,-2.4183,-2.424,-2.4257,-2.4315,-2.4233,-2.4299,-2.4342,-2.4279,-2.4365,-2.4371,-2.4398,-2.4502,-2.4548,-2.4512,-2.4718,-2.4651,-2.4662,-2.4667,-2.4724,-2.4747,-2.4768,-2.4498,-2.4497,-2.4496,0,0,-2.4291,-2.4306,-2.4387,-2.4405,-2.4431,-2.4423,-2.4442,-2.4459,-2.446,-2.4546,-2.4499,-2.4549,-2.4637,-2.4658,-2.468,-2.4842,-2.4804,-2.4858,-2.495,-2.501,-2.5029,-2.5046,-2.5103,-2.5124,-2.487,-2.4871,-2.4871,0,-2.4375,-2.4461,-2.4433,-2.4502,-2.4528,-2.4472,-2.4553,-2.4572,-2.4613,-2.4632,-2.459,-2.4698,-2.4712,-2.482,-2.4859,-2.4879,-2.49,-2.4856,-2.5028,-2.5045,-2.506,-2.5114,-2.5136,-2.4877,-2.4876,-2.4875,-2.4875,0,-2.4563,-2.4623,-2.4685,-2.4724,-2.4757,-2.4832,-2.4815,-2.4852,-2.4828,-2.4824,-2.4911,-2.4925,-2.4973,-2.4997,-2.4975,-2.5101,-2.5077,-2.5033,-2.496,-2.509,-2.514,-2.5161,-2.4886,-2.4884,-2.4882,-2.488,0,0,-2.4784,-2.4804,-2.4828,-2.4844,-2.4867,-2.4913,-2.4984,-2.503,-2.5062,-2.5091,-2.5149,-2.5224,-2.5182,-2.5207,-2.5186,-2.5239,-2.5365,-2.5187,-2.5187,-2.5219,-2.5503,-2.5536,-2.5561,-2.5339,-2.5343,-2.5346,-2.55,0,-2.494,-2.5063,-2.5039,-2.5159,-2.5214,-2.516,-2.5222,-2.5243,-2.524,-2.5285,-2.5282,-2.5335,-2.5276,-2.5291,-2.534,-2.5339,-2.5421,-2.5328,-2.5394,-2.5396,-2.5389,-2.5587,-2.5623,-2.5768,-2.552,-2.5523,-2.5525,0,-2.514,-2.5175,-2.5301,-2.5313,-2.5335,-2.5391,-2.543,-2.5474,-2.5496,-2.549,-2.5517,-2.5486,-2.5556,-2.5481,-2.5576,-2.5513,-2.5538,-2.5542,-2.5546,-2.5552,-2.5469,-2.5598,-2.5814,-2.5836,-2.5556,-2.5554,-2.5552,0,-2.5288,-2.5367,-2.5451,-2.5467,-2.5484,-2.5524,-2.5533,-2.555,-2.5578,-2.5612,-2.563,-2.5672,-2.5695,-2.5728,-2.5708,-2.5656,-2.5807,-2.5731,-2.5803,-2.5804,-2.5839,-2.5837,-2.6061,-2.5855,-2.5855,-2.5854,-2.5854,0,-2.5466,-2.5545,-2.5517,-2.557,-2.5656,-2.5626,-2.5712,-2.5715,-2.573,-2.5781,-2.5737,-2.5786,-2.5757,-2.5804,-2.5789,-2.5869,-2.588,-2.5877,-2.5872,-2.5881,-2.5882,-2.5898,-2.5887,-2.586,-2.5859,-2.5857,-2.5857,0,-2.5646,-2.5631,-2.572,-2.5727,-2.5731,-2.5794,-2.58,-2.5849,-2.5841,-2.5907,-2.592,-2.5909,-2.5961,-2.5945,-2.6002,-2.5991,-2.6093,-2.6076,-2.6086,-2.6082,-2.6155,-2.6149,-2.6398,-2.6429,-2.6203,-2.6205,-2.6207,0,-2.5761,-2.582,-2.5833,-2.5864,-2.5875,-2.5926,-2.5954,-2.5926,-2.5957,-2.5985,-2.6029,-2.6077,-2.6114,-2.62,-2.6197,-2.6239,-2.6222,-2.6306,-2.6228,-2.6235,-2.6223,-2.6219,-2.6225,-2.6323,-2.6325,-2.6327,-2.6329,0,-2.5966,-2.5954,-2.5996,-2.6035,-2.607,-2.6099,-2.6125,-2.6152,-2.6126,-2.6163,-2.6215,-2.6244,-2.63,-2.6348,-2.6386,-2.6394,-2.6358,-2.6353,-2.6372,-2.6382,-2.6386,-2.6384,-2.6129,-2.6348,-2.6346,-2.6345,-2.6344,-2.6343,-2.6116,-2.6165,-2.6182,-2.6229,-2.6245,-2.6269,-2.6314,-2.6312,-2.6355,-2.6398,-2.6379,-2.6439,-2.6457,-2.6503,-2.6517,-2.6563,-2.653,-2.6558,-2.6565,-2.6572,-2.6581,-2.6378,-2.657,-2.6569,-2.6568,-2.6568,-2.6568,0,-2.6318,-2.6325,-2.6369,-2.6405,-2.6443,-2.6403,-2.6429,-2.6462,-2.6515,-2.6535,-2.6571,-2.663,-2.6675,-2.6675,-2.6717,-2.6754,-2.6738,-2.6766,-2.6763,-2.6765,-2.6609,-2.6588,-2.6778,-2.6778,-2.6778,-2.6778,-2.6778,-2.6778,-2.6428,-2.6508,-2.6499,-2.6586,-2.6592,-2.665,-2.6668,-2.669,-2.6705,-2.6772,-2.6809,-2.6808,-2.6819,-2.6861,-2.6901,-2.6899,-2.6917,-2.6951,-2.6943,-2.6797,-2.6776,-2.6757,-2.6737,-2.6955,-2.6955,-2.7096,-2.7097,-2.7098]},{"header":{"parameterUnit":"m.s-1","parameterCategory":1,"la1":30.2991,"la2":30.254,"lo1":-89.0895,"lo2":-89.0444,"dx":0.0017,"dy":0.0017,"nx":28,"ny":28,"refTime":"2022-12-18T15:00:00:Z","depth":0,"parameterNumber":3,"parameterNumberName":"V-component_of_WINDS"},"data":[0,0,0,0,0,0,0,0,0,0,0,0,0,0,0,0,0,0,0,0,0,0,0,0,0,0,0,0,0,0,0,0,0,0,0,0,0,0,0,0,0,0,0,0,0,0,0,0,0,0,0,0,0,0,0,0,0,0,-4.7527,-4.7528,0,-4.7617,-4.7618,-4.7619,-4.7548,-4.7545,-4.7542,-4.7539,-4.7628,-4.7633,-4.7638,0,0,0,0,0,0,0,0,0,0,0,0,0,-4.7289,-4.7294,-4.7527,-4.7528,-4.7529,-4.7617,-4.7618,-4.7619,-4.7549,-4.7545,-4.7542,-4.7538,-4.7626,-4.7633,-4.7639,0,0,0,0,0,0,0,0,0,0,0,0,0,-4.7387,-4.7296,-4.7527,-4.7505,-4.7504,-4.7617,-4.7618,-4.762,-4.755,-4.7545,-4.7541,-4.7536,-4.7624,-4.7632,-4.764,-4.7778,0,0,-4.7663,-4.7667,0,0,0,0,0,0,0,0,-4.7382,-4.7396,-4.7507,-4.7507,-4.7506,-4.7567,-4.7567,-4.7673,-4.7551,-4.7532,-4.7539,-4.7534,-4.7611,-4.762,-4.7646,-4.7782,-4.7786,-4.7664,-4.7669,-4.7672,-4.7674,0,0,0,0,0,0,0,-4.7375,-4.7392,-4.7563,-4.7509,-4.7508,-4.7489,-4.7498,-4.7586,-4.7596,-4.7533,-4.7529,-4.754,-4.761,-4.7639,-4.7648,-4.7787,-4.7664,-4.7671,-4.7676,-4.7679,-4.8037,-4.8042,0,0,0,0,0,0,-4.7371,-4.7387,-4.756,-4.7565,-4.7431,-4.7497,-4.7507,-4.7552,-4.7595,-4.7597,-4.7544,-4.7537,-4.7628,-4.7639,-4.7651,-4.7813,-4.7672,-4.7679,-4.7684,-4.8032,-4.8038,-4.8044,0,0,0,0,0,0,-4.7366,-4.7387,-4.7556,-4.7475,-4.7495,-4.7506,-4.7557,-4.7556,-4.7585,-4.7603,-4.7604,-4.7573,-4.7625,-4.764,-4.7746,-4.7816,-4.7683,-4.769,-4.8027,-4.8034,-4.8041,-4.8141,0,0,0,0,0,0,-4.736,-4.7386,-4.744,-4.7476,-4.7499,-4.7652,-4.7561,-4.7561,-4.7599,-4.759,-4.763,-4.7632,-4.7623,-4.7735,-4.7754,-4.7824,-4.7696,-4.802,-4.803,-4.8039,-4.8132,-4.8151,-4.8168,0,0,0,0,0,-4.7351,-4.7465,-4.7443,-4.7465,-4.7568,-4.7656,-4.7669,-4.7657,-4.7605,-4.7658,-4.7669,-4.7631,-4.7805,-4.7747,-4.7767,-4.7841,-4.8016,-4.8027,-4.8038,-4.8124,-4.8147,-4.8167,0,0,0,0,0,0,-4.7436,-4.7469,-4.7446,-4.7575,-4.7613,-4.7644,-4.7712,-4.7683,-4.7737,-4.7726,-4.7707,-4.7717,-4.7828,-4.7845,-4.7779,-4.7975,-4.7902,-4.7918,-4.796,-4.7983,-4.8,-4.7993,-4.7702,0,0,0,0,0,-4.747,-4.7541,-4.7565,-4.7676,-4.7697,-4.7701,-4.7739,-4.7727,-4.7765,-4.7781,-4.78,-4.7838,-4.79,-4.7943,-4.8002,-4.8134,-4.814,-4.8194,-4.8212,-4.8227,-4.824,-4.8308,-4.8332,-4.808,-4.808,-4.8079,0,0,-4.754,-4.7567,-4.7613,-4.7694,-4.7722,-4.7794,-4.7715,-4.7795,-4.7847,-4.7793,-4.7894,-4.7909,-4.795,-4.8069,-4.8123,-4.8086,-4.8311,-4.8241,-4.8252,-4.8258,-4.8322,-4.8346,-4.8367,-4.8087,-4.8086,-4.8085,0,0,-4.7704,-4.7733,-4.7827,-4.7857,-4.7901,-4.7903,-4.7925,-4.796,-4.7968,-4.807,-4.8029,-4.809,-4.82,-4.823,-4.826,-4.8433,-4.8398,-4.8452,-4.8545,-4.8612,-4.8632,-4.8649,-4.8709,-4.8731,-4.8466,-4.8466,-4.8466,0,-4.7786,-4.7894,-4.7879,-4.7962,-4.7997,-4.7951,-4.8045,-4.8074,-4.8135,-4.816,-4.8119,-4.8254,-4.8278,-4.8402,-4.8444,-4.847,-4.8494,-4.8447,-4.863,-4.8648,-4.8664,-4.872,-4.8743,-4.8472,-4.8471,-4.8471,-4.847,0,-4.799,-4.8065,-4.8136,-4.8196,-4.824,-4.8328,-4.8324,-4.837,-4.8353,-4.8358,-4.846,-4.8487,-4.855,-4.8579,-4.8563,-4.87,-4.8676,-4.8633,-4.8559,-4.8694,-4.8747,-4.8768,-4.8481,-4.8479,-4.8477,-4.8475,0,0,-4.8212,-4.8261,-4.8287,-4.8312,-4.8356,-4.8413,-4.8497,-4.8559,-4.8597,-4.864,-4.8709,-4.8802,-4.8762,-4.8795,-4.8782,-4.8841,-4.8972,-4.879,-4.879,-4.8821,-4.9122,-4.9153,-4.9178,-4.895,-4.8954,-4.8957,-4.9118,0,-4.8376,-4.8525,-4.8513,-4.8652,-4.8719,-4.8675,-4.8748,-4.8782,-4.8788,-4.8845,-4.8851,-4.8917,-4.886,-4.888,-4.8936,-4.8945,-4.9032,-4.8933,-4.9011,-4.9014,-4.9002,-4.9206,-4.924,-4.939,-4.9138,-4.9142,-4.9145,0,-4.8589,-4.8639,-4.8785,-4.8816,-4.8844,-4.891,-4.8964,-4.902,-4.9056,-4.9056,-4.9093,-4.9069,-4.9151,-4.9076,-4.9187,-4.912,-4.9151,-4.916,-4.9165,-4.9171,-4.9087,-4.9216,-4.9438,-4.946,-4.9177,-4.9175,-4.9172,0,-4.8733,-4.8837,-4.8937,-4.896,-4.9,-4.9047,-4.9065,-4.9097,-4.9134,-4.918,-4.9203,-4.9259,-4.9289,-4.9332,-4.9322,-4.9269,-4.9436,-4.936,-4.9436,-4.9437,-4.9473,-4.9471,-4.9702,-4.9496,-4.9495,-4.9495,-4.9494,0,-4.8918,-4.9008,-4.9002,-4.9064,-4.9163,-4.9147,-4.9245,-4.9257,-4.9285,-4.9346,-4.9312,-4.937,-4.9354,-4.9411,-4.9404,-4.9496,-4.951,-4.9511,-4.9508,-4.9514,-4.9513,-4.9533,-4.9522,-4.9501,-4.9499,-4.9498,-4.9497,0,-4.9096,-4.9096,-4.9201,-4.9229,-4.9238,-4.931,-4.9333,-4.9389,-4.9392,-4.947,-4.9487,-4.9492,-4.9556,-4.9551,-4.9624,-4.9619,-4.9732,-4.9718,-4.9721,-4.9717,-4.9792,-4.9785,-5.0043,-5.0075,-4.985,-4.9852,-4.9854,0,-4.9213,-4.9282,-4.9317,-4.9356,-4.9377,-4.944,-4.9477,-4.9464,-4.9503,-4.9548,-4.9599,-4.966,-4.9709,-4.9814,-4.9822,-4.9877,-4.9862,-4.9949,-4.987,-4.9873,-4.9861,-4.9856,-4.9862,-4.9964,-4.9967,-4.9969,-4.997,0,-4.9421,-4.9417,-4.9472,-4.9527,-4.9573,-4.9615,-4.9654,-4.9687,-4.9677,-4.9723,-4.9789,-4.9827,-4.99,-4.9961,-5.0012,-5.0029,-4.9997,-4.9995,-5.0015,-5.0021,-5.0019,-5.0019,-4.9761,-4.9989,-4.9987,-4.9986,-4.9985,-4.9984,-4.9571,-4.9628,-4.9661,-4.9724,-4.9751,-4.9787,-4.9841,-4.9851,-4.9906,-4.9965,-4.9953,-5.0026,-5.0057,-5.0123,-5.0145,-5.0201,-5.0169,-5.0199,-5.0206,-5.0213,-5.0221,-5.0011,-5.021,-5.021,-5.0209,-5.0209,-5.0208,0,-4.9775,-4.9793,-4.9851,-4.9906,-4.9954,-4.9921,-4.9961,-5.0003,-5.0068,-5.0101,-5.0149,-5.0223,-5.0281,-5.0293,-5.0348,-5.039,-5.0376,-5.0404,-5.04,-5.0404,-5.0247,-5.0223,-5.0414,-5.0414,-5.0414,-5.0414,-5.0414,-5.0414,-4.9886,-4.9981,-4.9981,-5.0088,-5.0105,-5.0178,-5.0203,-5.0235,-5.0261,-5.0345,-5.0393,-5.0401,-5.0425,-5.048,-5.0531,-5.0533,-5.0554,-5.0587,-5.0583,-5.0436,-5.0416,-5.0396,-5.0373,-5.0592,-5.0593,-5.0735,-5.0737,-5.0738]}]]